Вернуться в каталог

STARLINK-37820

АктивенСвязьSSO
NORAD 69423·PAYLOAD·🇺🇸 United States

Запущен Jun 7, 2026 с Vandenberg Space Force Base

Loading…

Ближайшие Пролёты (ближайшие 24 часа)

TLE

СвежийSource: CelesTrak SupGP

Эпоха: Sep 15, 2026, 03:42 UTC

1 69423C 26126D   26258.15465278 -.00010078  00000+0 -31263-3 0  2585
2 69423  97.2849 119.3950 0001997  99.5460 149.7895 15.33463850    14

Отслеживайте STARLINK-37820 в реальном времени с AllMySat

Download on the App Store